EUTELSAT 115 WEST B

Last updated on Tue Sep 16 2025 00:02:48 GMT+0000 (Coordinated Universal Time)

1 40425U 15010B 25258.56178251 -.00000042 00000+0 00000+0 0 9994 2 40425 0.0359 335.4243 0000166 95.8912 10.8112 1.00271225 38638
UTC large
Height (km)
Speed (km/s)
/
Latitude / Longitude
Inclination (degrees)
Orbital Period (minutes)
Azimuth
Elevation
Range (km)
Doppler Factor

Next 0 passes for location: London (51.5072 / 0.1276)

Sorry there are no passes over London.